Year,Month,Day,Hour,Minute,Value (Times are PST for temperature in C)
2018,10,19,00,00,9.00
2018,10,19,00,01,8.90
2018,10,19,00,02,8.90
2018,10,19,00,03,8.90
2018,10,19,00,04,8.90
2018,10,19,00,05,8.90
2018,10,19,00,06,8.90
2018,10,19,00,07,8.90
2018,10,19,00,08,8.80
2018,10,19,00,09,8.80
2018,10,19,00,10,8.80
2018,10,19,00,11,8.80
2018,10,19,00,12,8.80
2018,10,19,00,13,8.80
2018,10,19,00,14,8.70
2018,10,19,00,15,8.70
2018,10,19,00,16,8.70
2018,10,19,00,17,8.70
2018,10,19,00,18,8.70
2018,10,19,00,19,8.70
2018,10,19,00,20,8.70
2018,10,19,00,21,8.70
2018,10,19,00,22,8.70
2018,10,19,00,23,8.70
2018,10,19,00,24,8.70
2018,10,19,00,25,8.70
2018,10,19,00,26,8.70
2018,10,19,00,27,8.70
2018,10,19,00,28,8.70
2018,10,19,00,29,8.70
2018,10,19,00,30,8.70
2018,10,19,00,31,8.70
2018,10,19,00,32,8.70
2018,10,19,00,33,8.70
2018,10,19,00,34,8.70
2018,10,19,00,35,8.60
2018,10,19,00,36,8.60
2018,10,19,00,37,8.60
2018,10,19,00,38,8.60
2018,10,19,00,39,8.60
2018,10,19,00,40,8.60
2018,10,19,00,41,8.60
2018,10,19,00,42,8.60
2018,10,19,00,43,8.60
2018,10,19,00,44,8.60
2018,10,19,00,45,8.60
2018,10,19,00,46,8.60
2018,10,19,00,47,8.60
2018,10,19,00,48,8.60
2018,10,19,00,49,8.60
2018,10,19,00,50,8.60
2018,10,19,00,51,8.60
2018,10,19,00,52,8.60
2018,10,19,00,53,8.60
2018,10,19,00,54,8.60
2018,10,19,00,55,8.60
2018,10,19,00,56,8.60
2018,10,19,00,57,8.50
2018,10,19,00,58,8.50
2018,10,19,00,59,8.50
2018,10,19,01,00,8.50
2018,10,19,01,01,8.50
2018,10,19,01,02,8.50
2018,10,19,01,03,8.40
2018,10,19,01,04,8.40
2018,10,19,01,05,8.40
2018,10,19,01,06,8.40
2018,10,19,01,07,8.40
2018,10,19,01,08,8.40
2018,10,19,01,09,8.40
2018,10,19,01,10,8.40
2018,10,19,01,11,8.40
2018,10,19,01,12,8.40
2018,10,19,01,13,8.40
2018,10,19,01,14,8.40
2018,10,19,01,15,8.40
2018,10,19,01,16,8.40
2018,10,19,01,17,8.40
2018,10,19,01,18,8.40
2018,10,19,01,19,8.40
2018,10,19,01,20,8.40
2018,10,19,01,21,8.40
2018,10,19,01,22,8.40
2018,10,19,01,23,8.40
2018,10,19,01,24,8.40
2018,10,19,01,25,8.30
2018,10,19,01,26,8.30
2018,10,19,01,27,8.30
2018,10,19,01,28,8.30
2018,10,19,01,29,8.30
2018,10,19,01,30,8.30
2018,10,19,01,31,8.30
2018,10,19,01,32,8.30
2018,10,19,01,33,8.20
2018,10,19,01,34,8.20
2018,10,19,01,35,8.20
2018,10,19,01,36,8.20
2018,10,19,01,37,8.20
2018,10,19,01,38,8.20
2018,10,19,01,39,8.20
2018,10,19,01,40,8.20
2018,10,19,01,41,8.20
2018,10,19,01,42,8.20
2018,10,19,01,43,8.20
2018,10,19,01,44,8.20
2018,10,19,01,45,8.20
2018,10,19,01,46,8.20
2018,10,19,01,47,8.10
2018,10,19,01,48,8.10
2018,10,19,01,49,8.10
2018,10,19,01,50,8.10
2018,10,19,01,51,8.10
2018,10,19,01,52,8.10
2018,10,19,01,53,8.10
2018,10,19,01,54,8.10
2018,10,19,01,55,8.10
2018,10,19,01,56,8.10
2018,10,19,01,57,8.00
2018,10,19,01,58,8.00
2018,10,19,01,59,8.00
2018,10,19,02,00,8.00
2018,10,19,02,01,8.00
2018,10,19,02,02,8.00
2018,10,19,02,03,8.00
2018,10,19,02,04,8.00
2018,10,19,02,05,8.00
2018,10,19,02,06,7.90
2018,10,19,02,07,7.90
2018,10,19,02,08,7.90
2018,10,19,02,09,7.90
2018,10,19,02,10,7.90
2018,10,19,02,11,7.90
2018,10,19,02,12,7.90
2018,10,19,02,13,7.90
2018,10,19,02,14,7.90
2018,10,19,02,15,7.90
2018,10,19,02,16,7.90
2018,10,19,02,17,7.90
2018,10,19,02,18,7.90
2018,10,19,02,19,7.90
2018,10,19,02,20,7.80
2018,10,19,02,21,7.80
2018,10,19,02,22,7.80
2018,10,19,02,23,7.80
2018,10,19,02,24,7.80
2018,10,19,02,25,7.80
2018,10,19,02,26,7.80
2018,10,19,02,27,7.80
2018,10,19,02,28,7.80
2018,10,19,02,29,7.80
2018,10,19,02,30,7.80
2018,10,19,02,31,7.80
2018,10,19,02,32,7.80
2018,10,19,02,33,7.80
2018,10,19,02,34,7.80
2018,10,19,02,35,7.80
2018,10,19,02,36,7.80
2018,10,19,02,37,7.80
2018,10,19,02,38,7.80
2018,10,19,02,39,7.80
2018,10,19,02,40,7.80
2018,10,19,02,41,7.80
2018,10,19,02,42,7.80
2018,10,19,02,43,7.80
2018,10,19,02,44,7.80
2018,10,19,02,45,7.70
2018,10,19,02,46,7.70
2018,10,19,02,47,7.70
2018,10,19,02,48,7.70
2018,10,19,02,49,7.70
2018,10,19,02,50,7.70
2018,10,19,02,51,7.70
2018,10,19,02,52,7.70
2018,10,19,02,53,7.70
2018,10,19,02,54,7.70
2018,10,19,02,55,7.70
2018,10,19,02,56,7.70
2018,10,19,02,57,7.70
2018,10,19,02,58,7.70
2018,10,19,02,59,7.70
2018,10,19,03,00,7.70
2018,10,19,03,01,7.70
2018,10,19,03,02,7.70
2018,10,19,03,03,7.70
2018,10,19,03,04,7.70
2018,10,19,03,05,7.70
2018,10,19,03,06,7.70
2018,10,19,03,07,7.70
2018,10,19,03,08,7.70
2018,10,19,03,09,7.70
2018,10,19,03,10,7.70
2018,10,19,03,11,7.70
2018,10,19,03,12,7.70
2018,10,19,03,13,7.70
2018,10,19,03,14,7.60
2018,10,19,03,15,7.60
2018,10,19,03,16,7.60
2018,10,19,03,17,7.50
2018,10,19,03,18,7.50
2018,10,19,03,19,7.40
2018,10,19,03,20,7.40
2018,10,19,03,21,7.40
2018,10,19,03,22,7.40
2018,10,19,03,23,7.30
2018,10,19,03,24,7.30
2018,10,19,03,25,7.30
2018,10,19,03,26,7.30
2018,10,19,03,27,7.30
2018,10,19,03,28,7.30
2018,10,19,03,29,7.30
2018,10,19,03,30,7.30
2018,10,19,03,31,7.30
2018,10,19,03,32,7.30
2018,10,19,03,33,7.30
2018,10,19,03,34,7.30
2018,10,19,03,35,7.30
2018,10,19,03,36,7.30
2018,10,19,03,37,7.30
2018,10,19,03,38,7.20
2018,10,19,03,39,7.20
2018,10,19,03,40,7.20
2018,10,19,03,41,7.20
2018,10,19,03,42,7.20
2018,10,19,03,43,7.20
2018,10,19,03,44,7.20
2018,10,19,03,45,7.20
2018,10,19,03,46,7.20
2018,10,19,03,47,7.20
2018,10,19,03,48,7.10
2018,10,19,03,49,7.10
2018,10,19,03,50,7.10
2018,10,19,03,51,7.20
2018,10,19,03,52,7.20
2018,10,19,03,53,7.20
2018,10,19,03,54,7.20
2018,10,19,03,55,7.20
2018,10,19,03,56,7.20
2018,10,19,03,57,7.20
2018,10,19,03,58,7.20
2018,10,19,03,59,7.20
2018,10,19,04,00,7.20
2018,10,19,04,01,7.20
2018,10,19,04,02,7.20
2018,10,19,04,03,7.20
2018,10,19,04,04,7.20
2018,10,19,04,05,7.20
2018,10,19,04,06,7.20
2018,10,19,04,07,7.20
2018,10,19,04,08,7.30
2018,10,19,04,09,7.30
2018,10,19,04,10,7.30
2018,10,19,04,11,7.30
2018,10,19,04,12,7.30
2018,10,19,04,13,7.30
2018,10,19,04,14,7.20
2018,10,19,04,15,7.20
2018,10,19,04,16,7.20
2018,10,19,04,17,7.20
2018,10,19,04,18,7.20
2018,10,19,04,19,7.20
2018,10,19,04,20,7.20
2018,10,19,04,21,7.20
2018,10,19,04,22,7.20
2018,10,19,04,23,7.20
2018,10,19,04,24,7.20
2018,10,19,04,25,7.20
2018,10,19,08,06,6.30
2018,10,19,08,07,6.30
2018,10,19,08,08,6.30
2018,10,19,08,09,6.30
2018,10,19,08,10,6.30
2018,10,19,08,11,6.30
2018,10,19,08,12,6.30
2018,10,19,08,13,6.30
2018,10,19,08,14,6.30
2018,10,19,08,15,6.30
2018,10,19,08,16,6.30
2018,10,19,08,17,6.30
2018,10,19,08,18,6.30
2018,10,19,08,19,6.30
2018,10,19,08,20,6.30
2018,10,19,08,21,6.30
2018,10,19,08,22,6.30
2018,10,19,08,23,6.30
2018,10,19,08,24,6.30
2018,10,19,08,25,6.30
2018,10,19,08,26,6.30
2018,10,19,08,27,6.30
2018,10,19,08,28,6.30
2018,10,19,08,29,6.30
2018,10,19,08,30,6.30
2018,10,19,08,31,6.30
2018,10,19,08,32,6.40
2018,10,19,08,33,6.40
2018,10,19,08,34,6.40
2018,10,19,08,35,6.50
2018,10,19,08,36,6.50
2018,10,19,08,37,6.50
2018,10,19,08,38,6.60
2018,10,19,08,39,6.60
2018,10,19,08,40,6.60
2018,10,19,08,41,6.70
2018,10,19,08,42,6.70
2018,10,19,08,43,6.70
2018,10,19,08,44,6.70
2018,10,19,08,45,6.70
2018,10,19,08,46,6.80
2018,10,19,08,47,6.80
2018,10,19,08,48,6.80
2018,10,19,08,49,6.80
2018,10,19,08,50,6.90
2018,10,19,08,51,6.90
2018,10,19,08,52,7.00
2018,10,19,08,53,7.00
2018,10,19,08,54,7.10
2018,10,19,08,55,7.10
2018,10,19,08,56,7.10
2018,10,19,08,57,7.10
2018,10,19,08,58,7.20
2018,10,19,08,59,7.20
2018,10,19,09,00,7.20
2018,10,19,09,01,7.30
2018,10,19,09,02,7.30
2018,10,19,09,03,7.30
2018,10,19,09,04,7.30
2018,10,19,09,05,7.40
2018,10,19,09,06,7.40
2018,10,19,09,07,7.40
2018,10,19,09,08,7.50
2018,10,19,09,09,7.50
2018,10,19,09,10,7.50
2018,10,19,09,11,7.50
2018,10,19,09,12,7.60
2018,10,19,09,13,7.60
2018,10,19,09,14,7.70
2018,10,19,09,15,7.70
2018,10,19,09,16,7.70
2018,10,19,09,17,7.80
2018,10,19,09,18,7.80
2018,10,19,09,19,7.80
2018,10,19,09,20,7.80
2018,10,19,09,21,7.80
2018,10,19,09,22,7.90
2018,10,19,09,23,7.90
2018,10,19,09,24,8.00
2018,10,19,09,25,8.00
2018,10,19,09,26,8.10
2018,10,19,09,27,8.10
2018,10,19,09,28,8.10
2018,10,19,09,29,8.10
2018,10,19,09,30,8.20
2018,10,19,09,31,8.20
2018,10,19,09,32,8.30
2018,10,19,09,33,8.30
2018,10,19,09,34,8.40
2018,10,19,09,35,8.50
2018,10,19,09,36,8.60
2018,10,19,09,37,8.60
2018,10,19,09,38,8.70
2018,10,19,09,39,8.70
2018,10,19,09,40,8.70
2018,10,19,09,41,8.70
2018,10,19,09,42,8.80
2018,10,19,09,43,8.80
2018,10,19,09,44,8.80
2018,10,19,09,45,8.90
2018,10,19,09,46,8.90
2018,10,19,09,47,8.90
2018,10,19,09,48,8.90
2018,10,19,09,49,8.90
2018,10,19,09,50,9.00
2018,10,19,09,51,9.00
2018,10,19,09,52,9.00
2018,10,19,09,53,9.00
2018,10,19,09,54,9.10
2018,10,19,09,55,9.10
2018,10,19,09,56,9.20
2018,10,19,09,57,9.20
2018,10,19,09,58,9.20
2018,10,19,09,59,9.20
2018,10,19,10,00,9.20
2018,10,19,10,01,9.30
2018,10,19,10,02,9.30
2018,10,19,10,03,9.40
2018,10,19,10,04,9.40
2018,10,19,10,05,9.40
2018,10,19,10,06,9.50
2018,10,19,10,07,9.50
2018,10,19,10,08,9.60
2018,10,19,10,09,9.60
2018,10,19,10,10,9.70
2018,10,19,10,11,9.70
2018,10,19,10,12,9.80
2018,10,19,10,13,9.80
2018,10,19,10,14,9.80
2018,10,19,10,15,9.90
2018,10,19,10,16,9.90
2018,10,19,10,17,10.00
2018,10,19,10,18,10.00
2018,10,19,10,19,10.10
2018,10,19,10,20,10.10
2018,10,19,10,21,10.20
2018,10,19,10,22,10.20
2018,10,19,10,23,10.30
2018,10,19,10,24,10.30
2018,10,19,10,25,10.40
2018,10,19,10,26,10.50
2018,10,19,10,27,10.50
2018,10,19,10,28,10.60
2018,10,19,10,29,10.70
2018,10,19,10,30,10.70
2018,10,19,10,31,10.80
2018,10,19,10,32,10.80
2018,10,19,10,33,10.80
2018,10,19,10,34,10.90
2018,10,19,10,35,10.90
2018,10,19,10,36,11.00
2018,10,19,10,37,11.00
2018,10,19,10,38,11.10
2018,10,19,10,39,11.10
2018,10,19,10,40,11.20
2018,10,19,10,41,11.20
2018,10,19,10,42,11.20
2018,10,19,10,43,11.30
2018,10,19,10,44,11.30
2018,10,19,10,45,11.40
2018,10,19,10,46,11.40
2018,10,19,10,47,11.50
2018,10,19,10,48,11.50
2018,10,19,10,49,11.60
2018,10,19,10,50,11.60
2018,10,19,10,51,11.60
2018,10,19,10,52,11.70
2018,10,19,10,53,11.70
2018,10,19,10,54,11.80
2018,10,19,10,55,11.80
2018,10,19,10,56,11.80
2018,10,19,10,57,11.90
2018,10,19,10,58,12.00
2018,10,19,10,59,12.00
2018,10,19,11,00,12.10
2018,10,19,11,01,12.10
2018,10,19,11,02,12.10
2018,10,19,11,03,12.20
2018,10,19,11,04,12.20
2018,10,19,11,05,12.20
2018,10,19,11,06,12.10
2018,10,19,11,07,12.10
2018,10,19,11,08,12.10
2018,10,19,11,09,12.10
2018,10,19,11,10,12.10
2018,10,19,11,11,12.00
2018,10,19,11,12,12.00
2018,10,19,11,13,12.00
2018,10,19,11,14,11.90
2018,10,19,11,15,11.80
2018,10,19,11,16,11.80
2018,10,19,11,17,11.70
2018,10,19,11,18,11.60
2018,10,19,11,19,11.50
2018,10,19,11,20,11.40
2018,10,19,11,21,11.30
2018,10,19,11,22,11.20
2018,10,19,11,23,11.10
2018,10,19,11,24,11.00
2018,10,19,11,25,11.00
2018,10,19,11,26,10.90
2018,10,19,11,27,10.80
2018,10,19,11,28,10.60
2018,10,19,11,29,10.50
2018,10,19,11,30,10.40
2018,10,19,11,31,10.40
2018,10,19,11,32,10.30
2018,10,19,11,33,10.30
2018,10,19,11,34,10.30
2018,10,19,11,35,10.20
2018,10,19,11,36,10.20
2018,10,19,11,37,10.20
2018,10,19,11,38,10.20
2018,10,19,11,39,10.20
2018,10,19,11,40,10.20
2018,10,19,11,41,10.10
2018,10,19,11,42,10.10
2018,10,19,11,43,10.10
2018,10,19,11,44,10.10
2018,10,19,11,45,10.10
2018,10,19,11,46,10.10
2018,10,19,11,47,10.10
2018,10,19,11,48,10.10
2018,10,19,11,49,10.10
2018,10,19,11,50,10.10
2018,10,19,11,51,10.10
2018,10,19,11,52,10.00
2018,10,19,11,53,10.00
2018,10,19,11,54,10.00
2018,10,19,11,55,10.00
2018,10,19,11,56,9.90
2018,10,19,11,57,9.90
2018,10,19,11,58,9.90
2018,10,19,11,59,9.90
2018,10,19,12,00,9.90
2018,10,19,12,01,9.80
2018,10,19,12,02,9.80
2018,10,19,12,03,9.80
2018,10,19,12,04,9.80
2018,10,19,12,05,9.80
2018,10,19,12,06,9.80
2018,10,19,12,07,9.80
2018,10,19,12,08,9.80
2018,10,19,12,09,9.80
2018,10,19,12,10,9.80
2018,10,19,12,11,9.80
2018,10,19,12,12,9.80
2018,10,19,12,13,9.80
2018,10,19,12,14,9.80
2018,10,19,12,15,9.80
2018,10,19,12,16,9.80
2018,10,19,12,17,9.80
2018,10,19,12,18,9.80
2018,10,19,12,19,9.80
2018,10,19,12,20,9.80
2018,10,19,12,21,9.80
2018,10,19,12,22,9.90
2018,10,19,12,23,9.90
2018,10,19,12,24,9.90
2018,10,19,12,25,9.90
2018,10,19,12,26,9.90
2018,10,19,12,27,9.90
2018,10,19,12,28,10.00
2018,10,19,12,29,10.00
2018,10,19,12,30,10.00
2018,10,19,12,31,10.00
2018,10,19,12,32,10.00
2018,10,19,12,33,10.00
2018,10,19,12,34,10.00
2018,10,19,12,35,10.00
2018,10,19,12,36,10.00
2018,10,19,12,37,9.90
2018,10,19,12,38,10.00
2018,10,19,12,39,9.90
2018,10,19,12,40,9.90
2018,10,19,12,41,9.90
2018,10,19,12,42,10.00
2018,10,19,12,43,10.00
2018,10,19,12,44,10.00
2018,10,19,12,45,10.10
2018,10,19,12,46,10.10
2018,10,19,12,47,10.10
2018,10,19,12,48,10.10
2018,10,19,12,49,10.20
2018,10,19,12,50,10.20
2018,10,19,12,51,10.20
2018,10,19,12,52,10.30
2018,10,19,12,53,10.30
2018,10,19,12,54,10.30
2018,10,19,12,55,10.30
2018,10,19,12,56,10.30
2018,10,19,12,57,10.40
2018,10,19,12,58,10.40
2018,10,19,12,59,10.40
2018,10,19,13,00,10.40
2018,10,19,13,01,10.40
2018,10,19,13,02,10.40
2018,10,19,13,03,10.40
2018,10,19,13,04,10.40
2018,10,19,13,05,10.50
2018,10,19,13,06,10.50
2018,10,19,13,07,10.50
2018,10,19,13,08,10.50
2018,10,19,13,09,10.50
2018,10,19,13,10,10.50
2018,10,19,13,11,10.60
2018,10,19,13,12,10.60
2018,10,19,13,13,10.60
2018,10,19,13,14,10.60
2018,10,19,13,15,10.60
2018,10,19,13,16,10.60
2018,10,19,13,17,10.70
2018,10,19,13,18,10.70
2018,10,19,13,19,10.70
2018,10,19,13,20,10.70
2018,10,19,13,21,10.70
2018,10,19,13,22,10.70
2018,10,19,13,23,10.70
2018,10,19,13,24,10.80
2018,10,19,13,25,10.80
2018,10,19,13,26,10.80
2018,10,19,13,27,10.80
2018,10,19,13,28,10.80
2018,10,19,13,29,10.90
2018,10,19,13,30,10.90
2018,10,19,13,31,10.90
2018,10,19,13,32,10.90
2018,10,19,13,33,11.00
2018,10,19,13,34,11.00
2018,10,19,13,35,11.00
2018,10,19,13,36,11.10
2018,10,19,13,37,11.10
2018,10,19,13,38,11.10
2018,10,19,13,39,11.20
2018,10,19,13,40,11.10
2018,10,19,13,41,11.10
2018,10,19,13,42,11.10
2018,10,19,13,43,11.20
2018,10,19,13,44,11.20
2018,10,19,13,45,11.20
2018,10,19,13,46,11.20
2018,10,19,13,47,11.20
2018,10,19,13,48,11.20
2018,10,19,13,49,11.20
2018,10,19,13,50,11.20
2018,10,19,13,51,11.20
2018,10,19,13,52,11.20
2018,10,19,13,53,11.20
2018,10,19,13,54,11.20
2018,10,19,13,55,11.20
2018,10,19,13,56,11.20
2018,10,19,13,57,11.20
2018,10,19,13,58,11.20
2018,10,19,13,59,11.30
2018,10,19,14,00,11.30
2018,10,19,14,01,11.30
2018,10,19,14,02,11.30
2018,10,19,14,03,11.40
2018,10,19,14,04,11.40
2018,10,19,14,05,11.50
2018,10,19,14,06,11.50
2018,10,19,14,07,11.60
2018,10,19,14,08,11.60
2018,10,19,14,09,11.60
2018,10,19,14,10,11.70
2018,10,19,14,11,11.70
2018,10,19,14,12,11.70
2018,10,19,14,13,11.70
2018,10,19,14,14,11.70
2018,10,19,14,15,11.80
2018,10,19,14,16,11.80
2018,10,19,14,17,11.80
2018,10,19,14,18,11.80
2018,10,19,14,19,11.80
2018,10,19,14,20,11.80
2018,10,19,14,21,11.80
2018,10,19,14,22,11.90
2018,10,19,14,23,11.90
2018,10,19,14,24,11.90
2018,10,19,14,25,12.00
2018,10,19,14,26,12.00
2018,10,19,14,27,12.10
2018,10,19,14,28,12.10
2018,10,19,14,29,12.20
2018,10,19,14,30,12.20
2018,10,19,14,31,12.30
2018,10,19,14,32,12.30
2018,10,19,14,33,12.40
2018,10,19,14,34,12.40
2018,10,19,14,35,12.50
2018,10,19,14,36,12.50
2018,10,19,14,37,12.60
2018,10,19,14,38,12.60
2018,10,19,14,39,12.70
2018,10,19,14,40,12.70
2018,10,19,14,41,12.70
2018,10,19,14,42,12.80
2018,10,19,14,43,12.80
2018,10,19,14,44,12.80
2018,10,19,14,45,12.90
2018,10,19,14,46,12.90
2018,10,19,14,47,12.90
2018,10,19,14,48,13.00
2018,10,19,14,49,13.00
2018,10,19,14,50,13.00
2018,10,19,14,51,13.00
2018,10,19,14,52,13.00
2018,10,19,14,53,13.00
2018,10,19,14,54,13.00
2018,10,19,14,55,13.00
2018,10,19,14,56,13.10
2018,10,19,14,57,13.10
2018,10,19,14,58,13.10
2018,10,19,14,59,13.10
2018,10,19,15,00,13.10
2018,10,19,15,01,13.20
2018,10,19,15,02,13.20
2018,10,19,15,03,13.20
2018,10,19,15,04,13.20
2018,10,19,15,05,13.20
2018,10,19,15,06,13.20
2018,10,19,15,07,13.20
2018,10,19,15,08,13.30
2018,10,19,15,09,13.30
2018,10,19,15,10,13.30
2018,10,19,15,11,13.30
2018,10,19,15,12,13.30
2018,10,19,15,13,13.30
2018,10,19,15,14,13.30
2018,10,19,15,15,13.30
2018,10,19,15,16,13.40
2018,10,19,15,17,13.40
2018,10,19,15,18,13.40
2018,10,19,15,19,13.40
2018,10,19,15,20,13.50
2018,10,19,15,21,13.50
2018,10,19,15,22,13.50
2018,10,19,15,23,13.60
2018,10,19,15,24,13.60
2018,10,19,15,25,13.60
2018,10,19,15,26,13.60
2018,10,19,15,27,13.60
2018,10,19,15,28,13.60
2018,10,19,15,29,13.60
2018,10,19,15,30,13.60
2018,10,19,15,31,13.60
2018,10,19,15,32,13.60
2018,10,19,15,33,13.60
2018,10,19,15,34,13.70
2018,10,19,15,35,13.60
2018,10,19,15,36,13.60
2018,10,19,15,37,13.70
2018,10,19,15,38,13.70
2018,10,19,15,39,13.70
2018,10,19,15,40,13.70
2018,10,19,15,41,13.70
2018,10,19,15,42,13.80
2018,10,19,15,43,13.80
2018,10,19,15,44,13.80
2018,10,19,15,45,13.80
2018,10,19,15,46,13.80
2018,10,19,15,47,13.80
2018,10,19,15,48,13.80
2018,10,19,15,49,13.80
2018,10,19,15,50,13.80
2018,10,19,15,51,13.80
2018,10,19,15,52,13.70
2018,10,19,15,53,13.70
2018,10,19,15,54,13.70
2018,10,19,15,55,13.70
2018,10,19,15,56,13.60
2018,10,19,15,57,13.60
2018,10,19,15,58,13.60
2018,10,19,15,59,13.50
2018,10,19,16,00,13.50
2018,10,19,16,01,13.40
2018,10,19,16,02,13.40
2018,10,19,16,03,13.40
2018,10,19,16,04,13.40
2018,10,19,16,05,13.40
2018,10,19,16,06,13.40
2018,10,19,16,07,13.40
2018,10,19,16,08,13.40
2018,10,19,16,09,13.50
2018,10,19,16,10,13.50
2018,10,19,16,11,13.50
2018,10,19,16,12,13.50
2018,10,19,16,13,13.50
2018,10,19,16,14,13.50
2018,10,19,16,15,13.50
2018,10,19,16,16,13.60
2018,10,19,16,17,13.60
2018,10,19,16,18,13.60
2018,10,19,16,19,13.60
2018,10,19,16,20,13.60
2018,10,19,16,21,13.60
2018,10,19,16,22,13.60
2018,10,19,16,23,13.60
2018,10,19,16,24,13.60
2018,10,19,16,25,13.60
2018,10,19,16,26,13.60
2018,10,19,16,27,13.60
2018,10,19,16,28,13.60
2018,10,19,16,29,13.50
2018,10,19,16,30,13.50
2018,10,19,16,31,13.50
2018,10,19,16,32,13.50
2018,10,19,16,33,13.50
2018,10,19,16,34,13.50
2018,10,19,16,35,13.50
2018,10,19,16,36,13.50
2018,10,19,16,37,13.40
2018,10,19,16,38,13.40
2018,10,19,16,39,13.40
2018,10,19,16,40,13.40
2018,10,19,16,41,13.40
2018,10,19,16,42,13.40
2018,10,19,16,43,13.40
2018,10,19,16,44,13.40
2018,10,19,16,45,13.40
2018,10,19,16,46,13.40
2018,10,19,16,47,13.40
2018,10,19,16,48,13.40
2018,10,19,16,49,13.40
2018,10,19,16,50,13.40
2018,10,19,16,51,13.40
2018,10,19,16,52,13.40
2018,10,19,16,53,13.40
2018,10,19,16,54,13.40
2018,10,19,16,55,13.40
2018,10,19,16,56,13.40
2018,10,19,16,57,13.40
2018,10,19,16,58,13.40
2018,10,19,16,59,13.40
2018,10,19,17,00,13.40
2018,10,19,17,01,13.50
2018,10,19,17,02,13.50
2018,10,19,17,03,13.60
2018,10,19,17,04,13.60
2018,10,19,17,05,13.70
2018,10,19,17,06,13.70
2018,10,19,17,07,13.80
2018,10,19,17,08,13.80
2018,10,19,17,09,13.90
2018,10,19,17,10,13.90
2018,10,19,17,11,13.90
2018,10,19,17,12,14.00
2018,10,19,17,13,14.00
2018,10,19,17,14,14.00
2018,10,19,17,15,14.10
2018,10,19,17,16,14.10
2018,10,19,17,17,14.10
2018,10,19,17,18,14.10
2018,10,19,17,19,14.10
2018,10,19,17,20,14.10
2018,10,19,17,21,14.10
2018,10,19,17,22,14.10
2018,10,19,17,23,14.10
2018,10,19,17,24,14.10
2018,10,19,17,25,14.10
2018,10,19,17,26,14.10
2018,10,19,17,27,14.10
2018,10,19,17,28,14.10
2018,10,19,17,29,14.10
2018,10,19,17,30,14.10
2018,10,19,17,31,14.10
2018,10,19,17,32,14.10
2018,10,19,17,33,14.10
2018,10,19,17,34,14.10
2018,10,19,17,35,14.10
2018,10,19,17,36,14.10
2018,10,19,17,37,14.10
2018,10,19,17,38,14.10
2018,10,19,17,39,14.10
2018,10,19,17,40,14.10
2018,10,19,17,41,14.10
2018,10,19,17,42,14.10
2018,10,19,17,43,14.10
2018,10,19,17,44,14.10
2018,10,19,17,45,14.10
2018,10,19,17,46,14.00
2018,10,19,17,47,14.00
2018,10,19,17,48,14.00
2018,10,19,17,49,14.00
2018,10,19,17,50,13.90
2018,10,19,17,51,13.90
2018,10,19,17,52,13.90
2018,10,19,17,53,13.90
2018,10,19,17,54,13.80
2018,10,19,17,55,13.80
2018,10,19,17,56,13.80
2018,10,19,17,57,13.80
2018,10,19,17,58,13.80
2018,10,19,17,59,13.70
2018,10,19,18,00,13.70
2018,10,19,18,01,13.70
2018,10,19,18,02,13.70
2018,10,19,18,03,13.70
2018,10,19,18,04,13.70
2018,10,19,18,05,13.70
2018,10,19,18,06,13.60
2018,10,19,18,07,13.60
2018,10,19,18,08,13.60
2018,10,19,18,09,13.60
2018,10,19,18,10,13.60
2018,10,19,18,11,13.60
2018,10,19,18,12,13.50
2018,10,19,18,13,13.50
2018,10,19,18,14,13.50
2018,10,19,18,15,13.50
2018,10,19,18,16,13.50
2018,10,19,18,17,13.50
2018,10,19,18,18,13.50
2018,10,19,18,19,13.50
2018,10,19,18,20,13.50
2018,10,19,18,21,13.50
2018,10,19,18,22,13.50
2018,10,19,18,23,13.40
2018,10,19,18,24,13.40
2018,10,19,18,25,13.40
2018,10,19,18,26,13.40
2018,10,19,18,27,13.40
2018,10,19,18,28,13.30
2018,10,19,18,29,13.30
2018,10,19,18,30,13.30
2018,10,19,18,31,13.20
2018,10,19,18,32,13.20
2018,10,19,18,33,13.20
2018,10,19,18,34,13.10
2018,10,19,18,35,13.10
2018,10,19,18,36,13.10
2018,10,19,18,37,13.00
2018,10,19,18,38,13.00
2018,10,19,18,39,12.90
2018,10,19,18,40,12.90
2018,10,19,18,41,12.90
2018,10,19,18,42,12.90
2018,10,19,18,43,12.80
2018,10,19,18,44,12.80
2018,10,19,18,45,12.80
2018,10,19,18,46,12.70
2018,10,19,18,47,12.70
2018,10,19,18,48,12.70
2018,10,19,18,49,12.60
2018,10,19,18,50,12.60
2018,10,19,18,51,12.60
2018,10,19,18,52,12.50
2018,10,19,18,53,12.50
2018,10,19,18,54,12.50
2018,10,19,18,55,12.40
2018,10,19,18,56,12.40
2018,10,19,18,57,12.40
2018,10,19,18,58,12.40
2018,10,19,18,59,12.40
2018,10,19,19,00,12.40
2018,10,19,19,01,12.40
2018,10,19,19,02,12.40
2018,10,19,19,03,12.30
2018,10,19,19,04,12.30
2018,10,19,19,05,12.30
2018,10,19,19,06,12.30
2018,10,19,19,07,12.30
2018,10,19,19,08,12.30
2018,10,19,19,09,12.30
2018,10,19,19,10,12.20
2018,10,19,19,11,12.20
2018,10,19,19,12,12.20
2018,10,19,19,13,12.20
2018,10,19,19,14,12.20
2018,10,19,19,15,12.10
2018,10,19,19,16,12.10
2018,10,19,19,17,12.00
2018,10,19,19,18,12.00
2018,10,19,19,19,11.90
2018,10,19,19,20,11.90
2018,10,19,19,21,11.90
2018,10,19,19,22,11.90
2018,10,19,19,23,11.90
2018,10,19,19,24,11.80
2018,10,19,19,25,11.80
2018,10,19,19,26,11.80
2018,10,19,19,27,11.80
2018,10,19,19,28,11.80
2018,10,19,19,29,11.70
2018,10,19,19,30,11.70
2018,10,19,19,31,11.70
2018,10,19,19,32,11.70
2018,10,19,19,33,11.60
2018,10,19,19,34,11.60
2018,10,19,19,35,11.60
2018,10,19,19,36,11.60
2018,10,19,19,37,11.60
2018,10,19,19,38,11.50
2018,10,19,19,39,11.50
2018,10,19,19,40,11.50
2018,10,19,19,41,11.50
2018,10,19,19,42,11.40
2018,10,19,19,43,11.40
2018,10,19,19,44,11.40
2018,10,19,19,45,11.40
2018,10,19,19,46,11.40
2018,10,19,19,47,11.30
2018,10,19,19,48,11.30
2018,10,19,19,49,11.30
2018,10,19,19,50,11.30
2018,10,19,19,51,11.20
2018,10,19,19,52,11.20
2018,10,19,19,53,11.20
2018,10,19,19,54,11.20
2018,10,19,19,55,11.20
2018,10,19,19,56,11.10
2018,10,19,19,57,11.10
2018,10,19,19,58,11.10
2018,10,19,19,59,11.10
2018,10,19,20,00,11.10
2018,10,19,20,01,11.00
2018,10,19,20,02,11.00
2018,10,19,20,03,11.00
2018,10,19,20,04,10.90
2018,10,19,20,05,10.90
2018,10,19,20,06,10.90
2018,10,19,20,07,10.90
2018,10,19,20,08,10.90
2018,10,19,20,09,10.80
2018,10,19,20,10,10.80
2018,10,19,20,11,10.80
2018,10,19,20,12,10.80
2018,10,19,20,13,10.80
2018,10,19,20,14,10.80
2018,10,19,20,15,10.80
2018,10,19,20,16,10.70
2018,10,19,20,17,10.70
2018,10,19,20,18,10.70
2018,10,19,20,19,10.70
2018,10,19,20,20,10.70
2018,10,19,20,21,10.70
2018,10,19,20,22,10.60
2018,10,19,20,23,10.60
2018,10,19,20,24,10.60
2018,10,19,20,25,10.60
2018,10,19,20,26,10.60
2018,10,19,20,27,10.60
2018,10,19,20,28,10.60
2018,10,19,20,29,10.50
2018,10,19,20,30,10.50
2018,10,19,20,31,10.50
2018,10,19,20,32,10.50
2018,10,19,20,33,10.40
2018,10,19,20,34,10.40
2018,10,19,20,35,10.40
2018,10,19,20,36,10.40
2018,10,19,20,37,10.40
2018,10,19,20,38,10.40
2018,10,19,20,39,10.40
2018,10,19,20,40,10.30
2018,10,19,20,41,10.30
2018,10,19,20,42,10.30
2018,10,19,20,43,10.30
2018,10,19,20,44,10.30
2018,10,19,20,45,10.30
2018,10,19,20,46,10.30
2018,10,19,20,47,10.30
2018,10,19,20,48,10.30
2018,10,19,20,49,10.20
2018,10,19,20,50,10.20
2018,10,19,20,51,10.20
2018,10,19,20,52,10.20
2018,10,19,20,53,10.20
2018,10,19,20,54,10.20
2018,10,19,20,55,10.20
2018,10,19,20,56,10.20
2018,10,19,20,57,10.20
2018,10,19,20,58,10.20
2018,10,19,20,59,10.10
2018,10,19,21,00,10.10
2018,10,19,21,01,10.10
2018,10,19,21,02,10.10
2018,10,19,21,03,10.10
2018,10,19,21,04,10.10
2018,10,19,21,05,10.00
2018,10,19,21,06,10.00
2018,10,19,21,07,10.00
2018,10,19,21,08,10.00
2018,10,19,21,09,9.90
2018,10,19,21,10,9.90
2018,10,19,21,11,9.90
2018,10,19,21,12,9.90
2018,10,19,21,13,9.90
2018,10,19,21,14,9.90
2018,10,19,21,15,9.90
2018,10,19,21,16,9.90
2018,10,19,21,17,9.80
2018,10,19,21,18,9.80